[[{"header":{"parameterUnit":"m.s-1","parameterCategory":1,"la1":30.2991,"la2":30.254,"lo1":-89.0895,"lo2":-89.0444,"dy":0.0017,"dx":0.0017,"nx":28,"ny":28,"refTime":"2025-11-30T09:00:00:Z","depth":0,"parameterNumber":2,"parameterNumberName":"U-component_of_WINDS"},"data":[0,0,0,0,0,0,0,0,0,0,0,0,0,0,0,0,0,0,0,0,0,0,0,0,0,0,0,0,0,0,0,0,0,0,0,0,0,0,0,0,0,0,0,0,0,0,0,0,0,0,0,0,0,0,0,0,0,0,-4.8473,-4.8474,0,-4.8554,-4.8555,-4.8556,-4.8424,-4.8419,-4.8415,-4.841,-4.8498,-4.8505,-4.8511,0,0,0,0,0,0,0,0,0,0,0,0,0,-4.8208,-4.8214,-4.8473,-4.8474,-4.8475,-4.8554,-4.8555,-4.8557,-4.8425,-4.8419,-4.8413,-4.8408,-4.8496,-4.8504,-4.8512,0,0,0,0,0,0,0,0,0,0,0,0,0,-4.831,-4.8216,-4.8473,-4.8419,-4.8415,-4.8554,-4.8555,-4.8557,-4.8426,-4.8419,-4.8412,-4.8406,-4.8494,-4.8503,-4.8513,-4.8711,0,0,-4.8543,-4.8547,0,0,0,0,0,0,0,0,-4.8304,-4.832,-4.8426,-4.8423,-4.8419,-4.8472,-4.8494,-4.8609,-4.8427,-4.8422,-4.841,-4.8402,-4.8495,-4.8505,-4.8535,-4.8715,-4.8718,-4.8544,-4.855,-4.8554,-4.8557,0,0,0,0,0,0,0,-4.8298,-4.8316,-4.8505,-4.8428,-4.8423,-4.8392,-4.8399,-4.8515,-4.8496,-4.8422,-4.8412,-4.8423,-4.8492,-4.8526,-4.8536,-4.872,-4.8544,-4.8552,-4.8559,-4.8562,-4.9065,-4.9072,0,0,0,0,0,0,-4.8297,-4.8311,-4.8503,-4.8508,-4.8343,-4.8402,-4.841,-4.8462,-4.8494,-4.8493,-4.8429,-4.8417,-4.8512,-4.8525,-4.8539,-4.8772,-4.8554,-4.8563,-4.8569,-4.9058,-4.9067,-4.9075,0,0,0,0,0,0,-4.8291,-4.8315,-4.85,-4.8407,-4.8428,-4.8414,-4.8473,-4.8467,-4.85,-4.85,-4.8496,-4.8467,-4.8507,-4.8525,-4.8668,-4.8773,-4.8568,-4.8577,-4.9049,-4.9061,-4.9071,-4.924,0,0,0,0,0,0,-4.8284,-4.8314,-4.8388,-4.8409,-4.8433,-4.8627,-4.848,-4.8473,-4.8517,-4.8502,-4.8534,-4.8533,-4.8503,-4.8654,-4.8678,-4.8783,-4.8585,-4.904,-4.9054,-4.9067,-4.9225,-4.9255,-4.9281,0,0,0,0,0,-4.8275,-4.8433,-4.8392,-4.8416,-4.8525,-4.8633,-4.8647,-4.8608,-4.8526,-4.8601,-4.8601,-4.8532,-4.8758,-4.867,-4.8696,-4.8805,-4.9033,-4.905,-4.9066,-4.9212,-4.9249,-4.9281,0,0,0,0,0,0,-4.8426,-4.8435,-4.839,-4.8559,-4.8596,-4.8611,-4.8704,-4.8649,-4.8712,-4.8695,-4.8646,-4.8654,-4.8808,-4.8821,-4.8723,-4.8998,-4.8882,-4.8904,-4.8984,-4.9019,-4.9047,-4.904,-4.8593,0,0,0,0,0,-4.8479,-4.8564,-4.8568,-4.8717,-4.8738,-4.8719,-4.8764,-4.8731,-4.8768,-4.8783,-4.8793,-4.8834,-4.8913,-4.8967,-4.904,-4.9226,-4.9231,-4.9314,-4.9342,-4.9365,-4.9386,-4.9485,-4.9521,-4.913,-4.913,-4.9129,0,0,-4.8589,-4.8604,-4.8662,-4.8748,-4.8773,-4.8864,-4.8733,-4.8834,-4.8902,-4.8799,-4.8935,-4.8944,-4.8986,-4.9151,-4.9224,-4.9166,-4.9495,-4.9387,-4.9405,-4.9413,-4.9506,-4.9543,-4.9576,-4.9141,-4.9139,-4.9137,0,0,-4.8836,-4.8856,-4.8982,-4.901,-4.9049,-4.9034,-4.9065,-4.9088,-4.9089,-4.9224,-4.9149,-4.923,-4.9368,-4.94,-4.9435,-4.9695,-4.9634,-4.972,-4.9868,-4.9965,-4.9996,-5.0023,-5.0116,-5.0149,-4.974,-4.9741,-4.9741,0,-4.8968,-4.9101,-4.9055,-4.9162,-4.9202,-4.9112,-4.924,-4.9269,-4.9331,-4.9362,-4.9295,-4.9467,-4.9489,-4.966,-4.9723,-4.9755,-4.9789,-4.9716,-4.9995,-5.0022,-5.0046,-5.0134,-5.0169,-4.9751,-4.975,-4.9749,-4.9748,0,-4.9262,-4.9355,-4.9453,-4.9512,-4.9564,-4.9681,-4.9654,-4.9712,-4.9674,-4.9668,-4.9807,-4.9829,-4.9905,-4.9944,-4.9909,-5.0111,-5.0074,-5.0003,-4.9885,-5.0095,-5.0176,-5.0209,-4.9766,-4.9762,-4.9759,-4.9756,0,0,-4.9606,-4.9638,-4.9675,-4.97,-4.9737,-4.9809,-4.9923,-4.9995,-5.0046,-5.0092,-5.0186,-5.0305,-5.0239,-5.0279,-5.0247,-5.0333,-5.0536,-5.025,-5.0251,-5.0302,-5.076,-5.0813,-5.0853,-5.0497,-5.0503,-5.0508,-5.0757,0,-4.9851,-5.0044,-5.0006,-5.0196,-5.0282,-5.0198,-5.0297,-5.0331,-5.0328,-5.0401,-5.0398,-5.0483,-5.039,-5.0413,-5.0494,-5.0495,-5.0628,-5.0476,-5.0585,-5.0589,-5.0576,-5.0895,-5.0952,-5.1185,-5.0788,-5.0794,-5.0797,0,-5.0163,-5.0218,-5.0417,-5.0439,-5.0473,-5.0563,-5.0626,-5.0697,-5.0734,-5.0726,-5.0771,-5.0723,-5.0837,-5.0718,-5.0875,-5.0772,-5.0815,-5.0822,-5.083,-5.0838,-5.0706,-5.0912,-5.1259,-5.1294,-5.0847,-5.0843,-5.084,0,-5.0393,-5.0518,-5.0652,-5.0677,-5.0707,-5.0772,-5.0787,-5.0817,-5.0863,-5.092,-5.0949,-5.1019,-5.1058,-5.1114,-5.1086,-5.1002,-5.1248,-5.1127,-5.1245,-5.1246,-5.13,-5.1297,-5.1659,-5.1329,-5.1329,-5.1328,-5.1327,0,-5.067,-5.0795,-5.0756,-5.0839,-5.0976,-5.0932,-5.1069,-5.1075,-5.1103,-5.1186,-5.1119,-5.1199,-5.1158,-5.1235,-5.1215,-5.1348,-5.1366,-5.1363,-5.1356,-5.1369,-5.1369,-5.1396,-5.1378,-5.1337,-5.1335,-5.1334,-5.1332,0,-5.095,-5.0929,-5.107,-5.1086,-5.1093,-5.1194,-5.1208,-5.1286,-5.1277,-5.1384,-5.1406,-5.1394,-5.1482,-5.146,-5.1556,-5.1542,-5.171,-5.1683,-5.1697,-5.169,-5.1809,-5.1798,-5.22,-5.225,-5.1889,-5.1893,-5.1895,0,-5.1128,-5.1222,-5.1248,-5.1298,-5.1318,-5.14,-5.1446,-5.1407,-5.1458,-5.1507,-5.158,-5.1661,-5.1724,-5.1868,-5.1869,-5.1942,-5.1916,-5.2052,-5.1926,-5.1936,-5.1917,-5.1912,-5.1921,-5.2076,-5.208,-5.2084,-5.2087,0,-5.1446,-5.1431,-5.15,-5.1565,-5.1622,-5.1672,-5.1716,-5.1762,-5.1726,-5.1787,-5.1875,-5.1924,-5.2021,-5.2103,-5.217,-5.2187,-5.2132,-5.2126,-5.2157,-5.2171,-5.2174,-5.2173,-5.1764,-5.2117,-5.2114,-5.2112,-5.211,-5.2109,-5.168,-5.1759,-5.1789,-5.1868,-5.1897,-5.1939,-5.2013,-5.2014,-5.2085,-5.216,-5.2133,-5.2234,-5.2269,-5.2353,-5.2379,-5.2458,-5.2407,-5.2453,-5.2464,-5.2475,-5.249,-5.2163,-5.2471,-5.247,-5.2469,-5.2468,-5.2468,0,-5.1994,-5.2009,-5.2082,-5.2145,-5.2207,-5.2148,-5.2194,-5.225,-5.2339,-5.2375,-5.2438,-5.254,-5.2619,-5.2625,-5.27,-5.2762,-5.2738,-5.2783,-5.2777,-5.2782,-5.2532,-5.2497,-5.2801,-5.2801,-5.28,-5.28,-5.28,-5.28,-5.2164,-5.2294,-5.2283,-5.2428,-5.2442,-5.2539,-5.257,-5.2609,-5.2638,-5.2753,-5.2818,-5.2821,-5.2846,-5.2922,-5.2992,-5.2992,-5.3023,-5.3077,-5.3068,-5.2833,-5.28,-5.2768,-5.2735,-5.3084,-5.3085,-5.3312,-5.3314,-5.3315]},{"header":{"parameterUnit":"m.s-1","parameterCategory":1,"la1":30.2991,"la2":30.254,"lo1":-89.0895,"lo2":-89.0444,"dy":0.0017,"dx":0.0017,"nx":28,"ny":28,"refTime":"2025-11-30T09:00:00:Z","depth":0,"parameterNumber":3,"parameterNumberName":"V-component_of_WINDS"},"data":[0,0,0,0,0,0,0,0,0,0,0,0,0,0,0,0,0,0,0,0,0,0,0,0,0,0,0,0,0,0,0,0,0,0,0,0,0,0,0,0,0,0,0,0,0,0,0,0,0,0,0,0,0,0,0,0,0,0,-1.5389,-1.5389,0,-1.5361,-1.5361,-1.5361,-1.5329,-1.5329,-1.5328,-1.5328,-1.5299,-1.5299,-1.5298,0,0,0,0,0,0,0,0,0,0,0,0,0,-1.5414,-1.5414,-1.5389,-1.5389,-1.5389,-1.5361,-1.5361,-1.5361,-1.5329,-1.5329,-1.5328,-1.5328,-1.5299,-1.5299,-1.5298,0,0,0,0,0,0,0,0,0,0,0,0,0,-1.5397,-1.5414,-1.539,-1.537,-1.5368,-1.5361,-1.5361,-1.536,-1.533,-1.5329,-1.5328,-1.5328,-1.5299,-1.5299,-1.5298,-1.5309,0,0,-1.5297,-1.5297,0,0,0,0,0,0,0,0,-1.5398,-1.5396,-1.5373,-1.5371,-1.5369,-1.5348,-1.5359,-1.5343,-1.533,-1.5344,-1.5328,-1.5327,-1.5316,-1.5314,-1.531,-1.5308,-1.5306,-1.5297,-1.5296,-1.5296,-1.5296,0,0,0,0,0,0,0,-1.5399,-1.5397,-1.5378,-1.5373,-1.537,-1.5362,-1.5359,-1.5356,-1.5334,-1.5343,-1.534,-1.5338,-1.5315,-1.5311,-1.5309,-1.5306,-1.5297,-1.5296,-1.5296,-1.5296,-1.5307,-1.5308,0,0,0,0,0,0,-1.5403,-1.5398,-1.5379,-1.5377,-1.5382,-1.5362,-1.5358,-1.5356,-1.5334,-1.533,-1.5338,-1.5336,-1.5312,-1.531,-1.5308,-1.5317,-1.5296,-1.5296,-1.5295,-1.5307,-1.5308,-1.5308,0,0,0,0,0,0,-1.5404,-1.5402,-1.538,-1.5387,-1.5384,-1.5362,-1.5359,-1.5355,-1.5351,-1.5331,-1.5327,-1.5338,-1.5311,-1.5309,-1.5308,-1.5316,-1.5296,-1.5295,-1.5306,-1.5307,-1.5308,-1.5337,0,0,0,0,0,0,-1.5405,-1.5402,-1.5407,-1.5387,-1.5383,-1.5382,-1.536,-1.5355,-1.5351,-1.5348,-1.533,-1.5326,-1.5311,-1.5309,-1.5308,-1.5315,-1.5295,-1.5305,-1.5307,-1.5308,-1.5335,-1.5338,-1.5341,0,0,0,0,0,-1.5406,-1.5417,-1.5407,-1.5405,-1.5389,-1.5382,-1.538,-1.5362,-1.5351,-1.5355,-1.5341,-1.5327,-1.5315,-1.5309,-1.5308,-1.5315,-1.5305,-1.5306,-1.5308,-1.5333,-1.5338,-1.5341,0,0,0,0,0,0,-1.5438,-1.5414,-1.5403,-1.5408,-1.5397,-1.5377,-1.5381,-1.5367,-1.536,-1.5357,-1.5335,-1.5331,-1.5333,-1.5324,-1.5318,-1.5322,-1.5308,-1.5309,-1.5328,-1.5332,-1.5335,-1.5337,-1.5294,0,0,0,0,0,-1.5445,-1.5443,-1.5422,-1.5428,-1.5423,-1.5403,-1.54,-1.5386,-1.5375,-1.537,-1.5356,-1.5345,-1.5338,-1.5335,-1.5328,-1.5333,-1.5328,-1.5337,-1.534,-1.5343,-1.5344,-1.5344,-1.5347,-1.5313,-1.5313,-1.5313,0,0,-1.5461,-1.5448,-1.5447,-1.5434,-1.5424,-1.5421,-1.5399,-1.5397,-1.5394,-1.537,-1.5368,-1.5357,-1.5343,-1.5345,-1.5345,-1.5337,-1.5352,-1.5345,-1.5347,-1.5347,-1.5346,-1.5349,-1.5352,-1.5314,-1.5314,-1.5313,0,0,-1.5488,-1.5478,-1.5481,-1.5471,-1.5456,-1.5443,-1.5443,-1.5424,-1.5416,-1.5414,-1.5394,-1.539,-1.5381,-1.537,-1.5364,-1.5384,-1.537,-1.5383,-1.54,-1.54,-1.5402,-1.5405,-1.541,-1.5413,-1.5384,-1.5384,-1.5384,0,-1.5509,-1.5504,-1.5485,-1.5483,-1.5477,-1.5453,-1.5455,-1.5447,-1.5431,-1.5426,-1.5418,-1.5403,-1.5392,-1.539,-1.5395,-1.5391,-1.539,-1.5385,-1.5404,-1.5406,-1.5408,-1.5413,-1.5415,-1.5386,-1.5385,-1.5385,-1.5385,0,-1.553,-1.5526,-1.5531,-1.5514,-1.5509,-1.5509,-1.5489,-1.5485,-1.5472,-1.5459,-1.5456,-1.5441,-1.543,-1.5429,-1.5417,-1.5424,-1.542,-1.5408,-1.5393,-1.5413,-1.5417,-1.5419,-1.5388,-1.5387,-1.5387,-1.5386,0,0,-1.5577,-1.5549,-1.555,-1.5542,-1.5523,-1.5519,-1.5518,-1.5506,-1.5503,-1.5492,-1.5489,-1.548,-1.5468,-1.5461,-1.5447,-1.5447,-1.5462,-1.5435,-1.5434,-1.5439,-1.5467,-1.5476,-1.5478,-1.5452,-1.5453,-1.5453,-1.5468,0,-1.5599,-1.5595,-1.5577,-1.5578,-1.5573,-1.555,-1.5548,-1.5536,-1.5523,-1.5516,-1.5502,-1.5495,-1.5481,-1.5476,-1.5475,-1.546,-1.5467,-1.5459,-1.5448,-1.5448,-1.5452,-1.5481,-1.549,-1.5505,-1.547,-1.547,-1.547,0,-1.5625,-1.5615,-1.5615,-1.5594,-1.5591,-1.559,-1.5577,-1.5571,-1.5556,-1.5546,-1.5537,-1.5521,-1.5517,-1.5503,-1.5496,-1.5491,-1.5485,-1.5477,-1.5477,-1.5475,-1.546,-1.5478,-1.551,-1.5512,-1.5473,-1.5473,-1.5473,0,-1.5657,-1.5643,-1.5641,-1.5635,-1.5611,-1.561,-1.56,-1.5584,-1.5577,-1.5566,-1.5561,-1.5549,-1.5542,-1.5533,-1.5514,-1.5506,-1.5508,-1.5493,-1.5499,-1.5499,-1.55,-1.55,-1.553,-1.5499,-1.5499,-1.5498,-1.5498,0,-1.5683,-1.5684,-1.5655,-1.5654,-1.5653,-1.5631,-1.5631,-1.5619,-1.5604,-1.5599,-1.5579,-1.5574,-1.5549,-1.5542,-1.5527,-1.5522,-1.5519,-1.5511,-1.5506,-1.5512,-1.5513,-1.5507,-1.5505,-1.5499,-1.5499,-1.5499,-1.5499,0,-1.5719,-1.57,-1.5696,-1.5673,-1.5667,-1.5667,-1.5647,-1.5644,-1.5629,-1.5623,-1.562,-1.5597,-1.5587,-1.5566,-1.5551,-1.5541,-1.5539,-1.5532,-1.5544,-1.5541,-1.5547,-1.5547,-1.5574,-1.5576,-1.5544,-1.5545,-1.5545,0,-1.5737,-1.5737,-1.5713,-1.5708,-1.5698,-1.5691,-1.5684,-1.5661,-1.5655,-1.5636,-1.5635,-1.5623,-1.5612,-1.5596,-1.5578,-1.5565,-1.5557,-1.5568,-1.5555,-1.556,-1.5556,-1.5555,-1.5554,-1.557,-1.5571,-1.5571,-1.5572,0,-1.577,-1.5759,-1.575,-1.5737,-1.5729,-1.5717,-1.5705,-1.5702,-1.5676,-1.567,-1.5658,-1.565,-1.5633,-1.5621,-1.5605,-1.5594,-1.5578,-1.5576,-1.5576,-1.5581,-1.5587,-1.5582,-1.555,-1.5575,-1.5575,-1.5574,-1.5574,-1.5574,-1.5796,-1.5794,-1.5776,-1.5766,-1.5754,-1.5742,-1.5737,-1.5721,-1.5712,-1.5696,-1.5683,-1.5673,-1.5655,-1.5632,-1.5622,-1.5612,-1.5605,-1.5606,-1.5606,-1.5607,-1.5608,-1.5589,-1.561,-1.561,-1.561,-1.5609,-1.5609,0,-1.5826,-1.5813,-1.5804,-1.5786,-1.5778,-1.5763,-1.5748,-1.5742,-1.5733,-1.5718,-1.5707,-1.5693,-1.568,-1.566,-1.5646,-1.5642,-1.5634,-1.5639,-1.5638,-1.5636,-1.5616,-1.5617,-1.5645,-1.5645,-1.5645,-1.5645,-1.5645,-1.5645,-1.5841,-1.5836,-1.5823,-1.5811,-1.5798,-1.5788,-1.578,-1.5768,-1.5756,-1.5741,-1.573,-1.5717,-1.57,-1.5683,-1.5671,-1.5665,-1.566,-1.5666,-1.5658,-1.5641,-1.5637,-1.5634,-1.5634,-1.5666,-1.5666,-1.5678,-1.5678,-1.5678]}]]